Skip Navigation
Skip Navigation

Today's Weather Data

Time Wind Dir Wind Spd
mph
Wind Gust
mph
Hum In
%
Humidity
%
Temp In
F
Temp
F
Raw Barom
in
Tot Rain
in
UV Solar
W/sqm
DailyRain
in
HourRain
in
24HrRain
in
RainRate
in/hr
12/10/2016 12:00:00a 44 1 3 19 77 80.8 49.0 30.22 2.36 0.0 0 0.00 0.00 0.00 0.000
12/10/2016 12:03:00a 44 1 3 19 77 80.8 49.1 30.22 2.36 0.0 0 0.00 0.00 0.00 0.000
12/10/2016 12:04:00a 44 2 3 19 77 80.8 49.1 30.22 2.36 0.0 0 0.00 0.00 0.00 0.000
12/10/2016 12:08:00a 44 3 3 19 77 80.8 49.2 30.22 2.36 0.0 0 0.00 0.00 0.00 0.000
12/10/2016 12:09:00a 44 4 4 19 77 80.8 49.2 30.22 2.36 0.0 0 0.00 0.00 0.00 0.000
12/10/2016 12:10:00a 44 3 4 19 77 80.8 49.2 30.22 2.36 0.0 0 0.00 0.00 0.00 0.000
12/10/2016 12:13:00a 44 2 4 19 77 80.8 49.1 30.22 2.36 0.0 0 0.00 0.00 0.00 0.000
12/10/2016 12:15:00a 44 1 4 19 77 80.8 49.0 30.22 2.36 0.0 0 0.00 0.00 0.00 0.000
12/10/2016 12:18:00a 44 3 4 19 77 80.8 49.0 30.22 2.36 0.0 0 0.00 0.00 0.00 0.000
12/10/2016 12:23:00a 44 0 4 19 77 80.8 49.0 30.22 2.36 0.0 0 0.00 0.00 0.00 0.000
12/10/2016 12:24:00a 44 0 4 19 78 80.8 49.0 30.22 2.36 0.0 0 0.00 0.00 0.00 0.000
12/10/2016 12:28:00a 44 2 4 19 78 80.8 49.1 30.23 2.36 0.0 0 0.00 0.00 0.00 0.000
12/10/2016 12:29:00a 44 1 4 19 78 80.8 49.1 30.23 2.36 0.0 0 0.00 0.00 0.00 0.000
12/10/2016 12:33:00a 44 2 4 19 78 80.8 49.0 30.23 2.36 0.0 0 0.00 0.00 0.00 0.000
12/10/2016 12:35:00a 44 3 4 19 78 80.8 49.0 30.23 2.36 0.0 0 0.00 0.00 0.00 0.000
12/10/2016 12:38:00a 62 3 4 19 77 80.6 48.8 30.23 2.36 0.0 0 0.00 0.00 0.00 0.000
12/10/2016 12:39:00a 62 3 4 19 78 80.6 48.8 30.23 2.36 0.0 0 0.00 0.00 0.00 0.000
12/10/2016 12:40:00a 62 3 4 19 78 80.6 48.9 30.23 2.36 0.0 0 0.00 0.00 0.00 0.000
12/10/2016 12:43:00a 62 0 4 19 78 80.6 49.0 30.22 2.36 0.0 0 0.00 0.00 0.00 0.000
12/10/2016 12:48:00a 62 0 4 19 78 80.6 49.0 30.21 2.36 0.0 0 0.00 0.00 0.00 0.000
12/10/2016 12:49:00a 62 0 4 19 78 80.6 49.1 30.21 2.36 0.0 0 0.00 0.00 0.00 0.000
12/10/2016 1:01:00a 62 0 0 19 78 80.6 49.2 30.21 2.36 0.0 0 0.00 0.00 0.00 0.000
12/10/2016 1:02:00a 62 0 0 19 78 80.6 49.3 30.21 2.36 0.0 0 0.00 0.00 0.00 0.000
12/10/2016 1:03:00a 62 0 0 19 78 80.6 49.3 30.22 2.36 0.0 0 0.00 0.00 0.00 0.000
12/10/2016 1:04:00a 62 0 0 19 78 80.4 49.3 30.22 2.36 0.0 0 0.00 0.00 0.00 0.000
12/10/2016 1:07:00a 62 2 2 19 78 80.4 49.3 30.22 2.36 0.0 0 0.00 0.00 0.00 0.000
12/10/2016 1:08:00a 62 1 2 19 78 80.4 49.3 30.22 2.36 0.0 0 0.00 0.00 0.00 0.000
12/10/2016 1:13:00a 62 0 2 19 78 80.4 49.3 30.22 2.36 0.0 0 0.00 0.00 0.00 0.000
12/10/2016 1:14:00a 62 0 2 19 78 80.4 49.2 30.22 2.36 0.0 0 0.00 0.00 0.00 0.000
12/10/2016 1:18:00a 62 1 2 19 78 80.4 49.1 30.22 2.36 0.0 0 0.00 0.00 0.00 0.000
12/10/2016 1:19:00a 62 0 2 19 78 80.4 49.0 30.22 2.36 0.0 0 0.00 0.00 0.00 0.000
12/10/2016 1:23:00a 62 2 2 19 78 80.4 48.9 30.22 2.36 0.0 0 0.00 0.00 0.00 0.000
12/10/2016 1:24:00a 62 1 2 18 78 80.4 48.8 30.22 2.36 0.0 0 0.00 0.00 0.00 0.000
12/10/2016 1:28:00a 62 2 2 19 78 80.2 48.6 30.22 2.36 0.0 0 0.00 0.00 0.00 0.000
12/10/2016 1:29:00a 62 2 2 18 77 80.2 48.6 30.22 2.36 0.0 0 0.00 0.00 0.00 0.000
12/10/2016 1:30:00a 62 3 3 18 77 80.2 48.6 30.22 2.36 0.0 0 0.00 0.00 0.00 0.000
12/10/2016 1:33:00a 62 3 3 18 77 80.2 48.4 30.22 2.36 0.0 0 0.00 0.00 0.00 0.000
12/10/2016 1:34:00a 62 2 3 18 77 80.2 48.4 30.22 2.36 0.0 0 0.00 0.00 0.00 0.000
12/10/2016 1:38:00a 62 1 3 18 78 80.2 48.4 30.22 2.36 0.0 0 0.00 0.00 0.00 0.000
12/10/2016 1:39:00a 62 0 3 18 78 80.2 48.4 30.22 2.36 0.0 0 0.00 0.00 0.00 0.000
12/10/2016 1:40:00a 62 1 3 18 78 80.2 48.4 30.22 2.36 0.0 0 0.00 0.00 0.00 0.000
12/10/2016 1:43:00a 62 0 3 18 78 80.2 48.3 30.22 2.36 0.0 0 0.00 0.00 0.00 0.000
12/10/2016 1:45:00a 62 3 3 18 78 80.2 48.3 30.22 2.36 0.0 0 0.00 0.00 0.00 0.000
12/10/2016 1:48:00a 62 0 3 18 78 80.2 48.3 30.22 2.36 0.0 0 0.00 0.00 0.00 0.000
12/10/2016 1:49:00a 62 1 3 18 78 80.2 48.2 30.22 2.36 0.0 0 0.00 0.00 0.00 0.000
12/10/2016 1:50:00a 62 1 3 18 78 80.2 48.3 30.22 2.36 0.0 0 0.00 0.00 0.00 0.000
12/10/2016 1:53:00a 62 1 3 18 78 80.2 48.2 30.22 2.36 0.0 0 0.00 0.00 0.00 0.000
12/10/2016 1:54:00a 62 2 3 18 78 80.2 48.2 30.22 2.36 0.0 0 0.00 0.00 0.00 0.000
12/10/2016 1:59:00a 62 2 3 18 78 80.2 48.1 30.22 2.36 0.0 0 0.00 0.00 0.00 0.000
12/10/2016 2:03:00a 62 2 3 18 78 80.2 48.0 30.21 2.36 0.0 0 0.00 0.00 0.00 0.000
12/10/2016 2:06:00a 62 3 3 18 78 80.2 47.9 30.21 2.36 0.0 0 0.00 0.00 0.00 0.000
12/10/2016 2:08:00a 63 2 3 18 78 80.1 47.7 30.21 2.36 0.0 0 0.00 0.00 0.00 0.000
12/10/2016 2:09:00a 63 1 3 18 78 80.1 47.7 30.21 2.36 0.0 0 0.00 0.00 0.00 0.000
12/10/2016 2:10:00a 63 2 3 18 78 80.1 47.7 30.21 2.36 0.0 0 0.00 0.00 0.00 0.000
12/10/2016 2:13:00a 63 0 3 18 79 80.1 47.6 30.20 2.36 0.0 0 0.00 0.00 0.00 0.000
12/10/2016 2:18:00a 63 0 3 18 79 80.1 47.7 30.20 2.36 0.0 0 0.00 0.00 0.00 0.000
12/10/2016 2:23:00a 63 1 3 18 79 79.9 47.7 30.19 2.36 0.0 0 0.00 0.00 0.00 0.000
12/10/2016 2:24:00a 63 2 3 18 79 79.9 47.7 30.19 2.36 0.0 0 0.00 0.00 0.00 0.000
12/10/2016 2:25:00a 63 1 3 18 79 79.9 47.7 30.19 2.36 0.0 0 0.00 0.00 0.00 0.000
12/10/2016 2:28:00a 63 2 3 18 79 79.9 47.7 30.19 2.36 0.0 0 0.00 0.00 0.00 0.000
12/10/2016 2:29:00a 63 3 3 18 79 79.9 47.7 30.19 2.36 0.0 0 0.00 0.00 0.00 0.000
12/10/2016 2:30:00a 63 2 3 18 79 79.9 47.7 30.19 2.36 0.0 0 0.00 0.00 0.00 0.000
12/10/2016 2:34:00a 63 3 4 18 79 79.9 47.7 30.19 2.36 0.0 0 0.00 0.00 0.00 0.000
12/10/2016 2:38:00a 64 2 4 18 79 79.9 47.5 30.19 2.36 0.0 0 0.00 0.00 0.00 0.000
12/10/2016 2:39:00a 63 3 4 18 79 79.9 47.5 30.19 2.36 0.0 0 0.00 0.00 0.00 0.000
12/10/2016 2:43:00a 66 3 4 18 80 79.9 47.5 30.19 2.36 0.0 0 0.00 0.00 0.00 0.000
12/10/2016 2:44:00a 66 3 4 18 80 79.7 47.5 30.19 2.36 0.0 0 0.00 0.00 0.00 0.000
12/10/2016 2:45:00a 66 2 4 18 80 79.7 47.5 30.19 2.36 0.0 0 0.00 0.00 0.00 0.000
12/10/2016 2:52:00a 66 0 4 18 80 79.7 47.5 30.20 2.36 0.0 0 0.00 0.00 0.00 0.000
12/10/2016 2:53:00a 66 2 4 18 80 79.7 47.4 30.19 2.36 0.0 0 0.00 0.00 0.00 0.000
12/10/2016 2:54:00a 66 0 4 18 80 79.7 47.5 30.19 2.36 0.0 0 0.00 0.00 0.00 0.000
12/10/2016 2:55:00a 66 1 4 18 80 79.7 47.5 30.19 2.36 0.0 0 0.00 0.00 0.00 0.000
12/10/2016 2:57:00a 66 2 4 18 80 79.7 47.5 30.19 2.36 0.0 0 0.00 0.00 0.00 0.000
12/10/2016 3:03:00a 66 2 4 18 80 79.7 47.6 30.19 2.36 0.0 0 0.00 0.00 0.00 0.000
12/10/2016 3:04:00a 66 3 4 18 80 79.7 47.6 30.19 2.36 0.0 0 0.00 0.00 0.00 0.000
12/10/2016 3:05:00a 66 3 4 18 80 79.7 47.7 30.19 2.36 0.0 0 0.00 0.00 0.00 0.000
12/10/2016 3:08:00a 66 1 4 18 80 79.7 47.7 30.19 2.36 0.0 0 0.00 0.00 0.00 0.000
12/10/2016 3:09:00a 66 2 4 18 80 79.5 47.7 30.19 2.36 0.0 0 0.00 0.00 0.00 0.000
12/10/2016 3:13:00a 66 0 4 18 80 79.5 47.7 30.19 2.36 0.0 0 0.00 0.00 0.00 0.000
12/10/2016 3:15:00a 66 0 4 18 81 79.5 47.7 30.19 2.36 0.0 0 0.00 0.00 0.00 0.000
12/10/2016 3:18:00a 66 2 4 18 81 79.5 47.8 30.19 2.36 0.0 0 0.00 0.00 0.00 0.000
12/10/2016 3:20:00a 66 3 4 18 81 79.5 47.8 30.19 2.36 0.0 0 0.00 0.00 0.00 0.000
12/10/2016 3:23:00a 67 2 4 18 81 79.5 47.8 30.19 2.36 0.0 0 0.00 0.00 0.00 0.000
12/10/2016 3:25:00a 67 1 4 18 81 79.5 47.8 30.19 2.36 0.0 0 0.00 0.00 0.00 0.000
12/10/2016 3:28:00a 67 1 4 18 81 79.5 47.9 30.19 2.36 0.0 0 0.00 0.00 0.00 0.000
12/10/2016 3:29:00a 67 2 4 18 81 79.5 47.9 30.19 2.36 0.0 0 0.00 0.00 0.00 0.000
12/10/2016 3:30:00a 67 1 4 18 81 79.5 47.9 30.19 2.36 0.0 0 0.00 0.00 0.00 0.000
12/10/2016 3:33:00a 67 3 4 18 81 79.3 48.0 30.19 2.36 0.0 0 0.00 0.00 0.00 0.000
12/10/2016 3:34:00a 67 2 4 18 81 79.3 48.1 30.19 2.36 0.0 0 0.00 0.00 0.00 0.000
12/10/2016 3:35:00a 67 1 4 18 81 79.3 48.1 30.19 2.36 0.0 0 0.00 0.00 0.00 0.000
12/10/2016 3:38:00a 67 0 4 18 81 79.3 48.2 30.19 2.36 0.0 0 0.00 0.00 0.00 0.000
12/10/2016 3:44:00a 67 2 4 18 81 79.3 48.2 30.19 2.36 0.0 0 0.00 0.00 0.00 0.000
12/10/2016 3:45:00a 67 2 4 18 81 79.3 48.3 30.19 2.36 0.0 0 0.00 0.00 0.00 0.000
12/10/2016 3:48:00a 67 1 4 18 81 79.3 48.3 30.19 2.36 0.0 0 0.00 0.00 0.00 0.000
12/10/2016 3:50:00a 67 0 4 18 81 79.3 48.3 30.19 2.36 0.0 0 0.00 0.00 0.00 0.000
12/10/2016 3:53:00a 67 0 4 18 81 79.3 48.4 30.19 2.36 0.0 0 0.00 0.00 0.00 0.000
12/10/2016 4:03:00a 67 1 4 18 81 79.3 48.4 30.20 2.36 0.0 0 0.00 0.00 0.00 0.000
12/10/2016 4:04:00a 67 2 4 18 81 79.1 48.4 30.20 2.36 0.0 0 0.00 0.00 0.00 0.000
12/10/2016 4:05:00a 67 3 4 18 81 79.1 48.4 30.20 2.36 0.0 0 0.00 0.00 0.00 0.000
12/10/2016 4:08:00a 67 0 4 18 81 79.1 48.4 30.20 2.36 0.0 0 0.00 0.00 0.00 0.000
12/10/2016 4:09:00a 67 0 4 18 80 79.1 48.3 30.20 2.36 0.0 0 0.00 0.00 0.00 0.000
12/10/2016 4:14:00a 67 0 4 18 80 79.1 48.2 30.20 2.36 0.0 0 0.00 0.00 0.00 0.000
12/10/2016 4:18:00a 67 2 4 18 80 78.9 48.2 30.20 2.36 0.0 0 0.00 0.00 0.00 0.000
12/10/2016 4:23:00a 67 2 4 18 80 78.9 48.1 30.20 2.36 0.0 0 0.00 0.00 0.00 0.000
12/10/2016 4:24:00a 67 3 4 18 80 78.9 48.1 30.20 2.36 0.0 0 0.00 0.00 0.00 0.000
12/10/2016 4:25:00a 67 2 4 18 80 78.9 48.1 30.20 2.36 0.0 0 0.00 0.00 0.00 0.000
12/10/2016 4:33:00a 67 2 4 18 80 78.9 48.3 30.20 2.36 0.0 0 0.00 0.00 0.00 0.000
12/10/2016 4:34:00a 67 3 4 18 81 78.9 48.3 30.20 2.36 0.0 0 0.00 0.00 0.00 0.000
12/10/2016 4:37:00a 67 2 4 18 81 78.9 48.3 30.20 2.36 0.0 0 0.00 0.00 0.00 0.000
12/10/2016 4:40:00a 67 2 4 18 81 78.9 48.5 30.20 2.36 0.0 0 0.00 0.00 0.00 0.000
12/10/2016 4:43:00a 67 3 4 18 81 78.9 48.5 30.20 2.36 0.0 0 0.00 0.00 0.00 0.000
12/10/2016 4:44:00a 67 2 4 18 81 78.9 48.5 30.20 2.36 0.0 0 0.00 0.00 0.00 0.000
12/10/2016 4:45:00a 67 2 4 18 81 78.9 48.4 30.20 2.36 0.0 0 0.00 0.00 0.00 0.000
12/10/2016 4:48:00a 62 2 4 18 81 78.9 48.5 30.20 2.36 0.0 0 0.00 0.00 0.00 0.000
12/10/2016 4:50:00a 62 3 4 18 81 78.9 48.5 30.20 2.36 0.0 0 0.00 0.00 0.00 0.000
12/10/2016 4:53:00a 62 0 4 18 81 78.9 48.5 30.20 2.36 0.0 0 0.00 0.00 0.00 0.000
12/10/2016 4:58:00a 62 0 4 18 81 78.8 48.5 30.20 2.36 0.0 0 0.00 0.00 0.00 0.000
12/10/2016 5:04:00a 62 0 4 18 81 78.8 48.4 30.20 2.36 0.0 0 0.00 0.00 0.00 0.000
12/10/2016 5:08:00a 62 0 4 18 80 78.8 48.4 30.21 2.36 0.0 0 0.00 0.00 0.00 0.000
12/10/2016 5:13:00a 62 0 4 18 80 78.8 48.3 30.21 2.36 0.0 0 0.00 0.00 0.00 0.000
12/10/2016 5:18:00a 62 0 4 18 80 78.8 48.2 30.21 2.36 0.0 0 0.00 0.00 0.00 0.000
12/10/2016 5:23:00a 62 0 4 18 80 78.8 48.1 30.21 2.36 0.0 0 0.00 0.00 0.00 0.000
12/10/2016 5:28:00a 62 0 4 18 80 78.6 48.1 30.21 2.36 0.0 0 0.00 0.00 0.00 0.000
12/10/2016 5:29:00a 62 0 4 18 80 78.6 48.0 30.21 2.36 0.0 0 0.00 0.00 0.00 0.000
12/10/2016 5:33:00a 62 0 4 18 80 78.6 47.9 30.20 2.36 0.0 0 0.00 0.00 0.00 0.000
12/10/2016 5:38:00a 62 0 4 18 80 78.6 47.7 30.21 2.36 0.0 0 0.00 0.00 0.00 0.000
12/10/2016 5:43:00a 62 0 4 18 80 78.6 47.5 30.20 2.36 0.0 0 0.00 0.00 0.00 0.000
12/10/2016 5:44:00a 62 2 4 18 80 78.6 47.5 30.21 2.36 0.0 0 0.00 0.00 0.00 0.000
12/10/2016 5:48:00a 62 0 4 18 80 78.6 47.3 30.21 2.36 0.0 0 0.00 0.00 0.00 0.000
12/10/2016 5:49:00a 62 0 4 18 80 78.4 47.2 30.21 2.36 0.0 0 0.00 0.00 0.00 0.000
12/10/2016 5:53:00a 62 1 4 18 80 78.4 47.1 30.20 2.36 0.0 0 0.00 0.00 0.00 0.000
12/10/2016 5:54:00a 62 2 4 18 80 78.4 47.0 30.20 2.36 0.0 0 0.00 0.00 0.00 0.000
12/10/2016 5:58:00a 62 1 4 18 80 78.4 46.8 30.21 2.36 0.0 0 0.00 0.00 0.00 0.000
12/10/2016 6:00:00a 62 0 4 18 80 78.4 46.8 30.21 2.36 0.0 0 0.00 0.00 0.00 0.000
12/10/2016 6:03:00a 62 3 4 18 80 78.4 46.9 30.21 2.36 0.0 0 0.00 0.00 0.00 0.000
12/10/2016 6:05:00a 62 3 4 18 80 78.4 46.8 30.21 2.36 0.0 0 0.00 0.00 0.00 0.000
12/10/2016 6:08:00a 62 2 4 18 81 78.4 46.9 30.21 2.36 0.0 0 0.00 0.00 0.00 0.000
12/10/2016 6:10:00a 62 1 4 18 81 78.4 46.9 30.21 2.36 0.0 0 0.00 0.00 0.00 0.000
12/10/2016 6:13:00a 62 1 4 18 81 78.4 46.8 30.21 2.36 0.0 0 0.00 0.00 0.00 0.000
12/10/2016 6:14:00a 62 0 4 18 81 78.4 46.8 30.21 2.36 0.0 0 0.00 0.00 0.00 0.000
12/10/2016 6:18:00a 63 2 4 18 81 78.4 46.7 30.21 2.36 0.0 0 0.00 0.00 0.00 0.000
12/10/2016 6:19:00a 63 1 4 18 81 78.4 46.7 30.21 2.36 0.0 0 0.00 0.00 0.00 0.000
12/10/2016 6:24:00a 63 1 4 18 81 78.4 46.6 30.22 2.36 0.0 0 0.00 0.00 0.00 0.000
12/10/2016 6:25:00a 63 0 4 18 81 78.4 46.6 30.22 2.36 0.0 0 0.00 0.00 0.00 0.000
12/10/2016 6:32:00a 63 0 0 18 81 78.4 46.6 30.21 2.36 0.0 0 0.00 0.00 0.00 0.000
12/10/2016 6:38:00a 63 0 0 18 81 78.6 46.5 30.22 2.36 0.0 5 0.00 0.00 0.00 0.000
12/10/2016 6:45:00a 63 0 0 18 81 78.4 46.5 30.22 2.36 0.0 0 0.00 0.00 0.00 0.000
12/10/2016 6:48:00a 63 0 0 18 81 78.4 46.5 30.22 2.36 0.0 7 0.00 0.00 0.00 0.000
12/10/2016 6:49:00a 63 0 0 18 82 78.4 46.5 30.22 2.36 0.0 7 0.00 0.00 0.00 0.000
12/10/2016 6:50:00a 63 0 0 18 82 78.4 46.5 30.22 2.36 0.0 9 0.00 0.00 0.00 0.000
12/10/2016 6:52:00a 63 0 0 18 82 78.4 46.5 30.22 2.36 0.0 11 0.00 0.00 0.00 0.000
12/10/2016 6:53:00a 63 0 0 18 82 78.4 46.5 30.22 2.36 0.0 12 0.00 0.00 0.00 0.000
12/10/2016 6:54:00a 63 0 0 18 82 78.4 46.5 30.22 2.36 0.0 14 0.00 0.00 0.00 0.000
12/10/2016 6:56:00a 63 0 0 18 81 78.4 46.5 30.22 2.36 0.0 16 0.00 0.00 0.00 0.000
12/10/2016 6:57:00a 63 0 0 18 81 78.4 46.5 30.22 2.36 0.0 18 0.00 0.00 0.00 0.000
12/10/2016 6:58:00a 63 0 0 18 81 78.2 46.5 30.22 2.36 0.0 19 0.00 0.00 0.00 0.000
12/10/2016 6:59:00a 63 0 0 18 82 78.2 46.5 30.22 2.36 0.0 19 0.00 0.00 0.00 0.000
12/10/2016 7:00:00a 63 0 0 18 82 78.2 46.5 30.22 2.36 0.0 21 0.00 0.00 0.00 0.000
12/10/2016 7:02:00a 63 0 0 18 82 78.1 46.5 30.22 2.36 0.0 23 0.00 0.00 0.00 0.000
12/10/2016 7:03:00a 63 0 0 18 82 78.1 46.5 30.22 2.36 0.0 25 0.00 0.00 0.00 0.000
12/10/2016 7:04:00a 63 0 0 18 82 78.1 46.6 30.23 2.36 0.0 26 0.00 0.00 0.00 0.000
12/10/2016 7:05:00a 63 0 0 18 82 78.1 46.6 30.23 2.36 0.0 28 0.00 0.00 0.00 0.000
12/10/2016 7:09:00a 63 3 3 18 82 77.9 46.6 30.23 2.36 0.0 32 0.00 0.00 0.00 0.000
12/10/2016 7:14:00a 64 3 3 18 82 77.9 46.6 30.23 2.36 0.0 42 0.00 0.00 0.00 0.000
12/10/2016 7:15:00a 63 2 3 18 82 77.9 46.6 30.23 2.36 0.0 42 0.00 0.00 0.00 0.000
12/10/2016 7:18:00a 63 1 3 18 82 77.9 46.8 30.23 2.36 0.0 47 0.00 0.00 0.00 0.000
12/10/2016 7:19:00a 63 1 3 18 82 77.9 46.8 30.24 2.36 0.0 53 0.00 0.00 0.00 0.000
12/10/2016 7:20:00a 63 1 3 18 82 77.9 46.9 30.24 2.36 0.0 53 0.00 0.00 0.00 0.000
12/10/2016 7:23:00a 63 2 3 18 83 77.9 47.2 30.24 2.36 0.0 70 0.00 0.00 0.00 0.000
12/10/2016 7:24:00a 64 2 3 18 83 77.9 47.3 30.24 2.36 0.0 74 0.00 0.00 0.00 0.000
12/10/2016 7:28:00a 63 0 3 18 83 77.9 47.6 30.23 2.36 0.0 77 0.00 0.00 0.00 0.000
12/10/2016 7:29:00a 63 1 3 18 83 77.9 47.7 30.23 2.36 0.0 83 0.00 0.00 0.00 0.000
12/10/2016 7:30:00a 63 0 3 18 83 77.9 47.7 30.23 2.36 0.0 83 0.00 0.00 0.00 0.000
12/10/2016 7:33:00a 63 0 3 18 83 77.9 47.8 30.23 2.36 0.0 86 0.00 0.00 0.00 0.000
12/10/2016 7:35:00a 63 0 3 18 83 77.9 47.9 30.23 2.36 0.0 86 0.00 0.00 0.00 0.000
12/10/2016 7:39:00a 63 0 3 18 83 77.9 48.0 30.23 2.36 0.0 97 0.00 0.00 0.00 0.000
12/10/2016 7:40:00a 63 0 3 18 83 77.9 48.0 30.23 2.36 0.0 100 0.00 0.00 0.00 0.000
12/10/2016 7:44:00a 63 0 3 18 83 77.9 48.2 30.23 2.36 0.0 116 0.00 0.00 0.00 0.000
12/10/2016 7:49:00a 63 0 3 18 83 77.9 48.5 30.23 2.36 0.0 121 0.00 0.00 0.00 0.000
12/10/2016 7:50:00a 63 0 3 18 83 77.9 48.6 30.23 2.36 0.0 121 0.00 0.00 0.00 0.000
12/10/2016 7:54:00a 63 0 3 18 83 77.9 49.0 30.23 2.36 0.0 141 0.00 0.00 0.00 0.000
12/10/2016 7:59:00a 64 1 3 18 83 77.9 49.2 30.23 2.36 0.0 132 0.00 0.00 0.00 0.000
12/10/2016 8:00:00a 63 2 3 18 83 77.9 49.3 30.23 2.36 0.0 132 0.00 0.00 0.00 0.000
12/10/2016 8:04:00a 81 2 3 18 83 77.9 49.6 30.24 2.36 0.0 107 0.00 0.00 0.00 0.000
12/10/2016 8:05:00a 198 2 3 18 83 77.9 49.6 30.24 2.36 0.0 130 0.00 0.00 0.00 0.000
12/10/2016 8:09:00a 208 1 3 18 83 77.9 49.9 30.23 2.36 0.0 81 0.00 0.00 0.00 0.000
12/10/2016 8:10:00a 208 0 3 18 83 77.9 50.0 30.23 2.36 0.0 76 0.00 0.00 0.00 0.000
12/10/2016 8:13:00a 209 0 3 18 83 77.9 50.1 30.24 2.36 0.0 86 0.00 0.00 0.00 0.000
12/10/2016 8:15:00a 208 0 3 18 83 77.9 50.2 30.24 2.36 0.0 83 0.00 0.00 0.00 0.000
12/10/2016 8:18:00a 209 0 3 18 82 77.9 50.3 30.24 2.36 0.0 97 0.00 0.00 0.00 0.000
12/10/2016 8:19:00a 211 0 3 18 82 77.9 50.3 30.24 2.36 0.0 120 0.00 0.00 0.00 0.000
12/10/2016 8:20:00a 211 2 3 18 82 77.9 50.3 30.24 2.36 0.0 120 0.00 0.00 0.00 0.000
12/10/2016 8:23:00a 214 0 3 18 82 77.9 50.3 30.24 2.36 0.0 190 0.00 0.00 0.00 0.000
12/10/2016 8:24:00a 214 2 3 18 82 77.9 50.4 30.24 2.36 0.5 183 0.00 0.00 0.00 0.000
12/10/2016 8:26:00a 214 3 3 18 82 77.9 50.4 30.24 2.36 0.5 183 0.00 0.00 0.00 0.000
12/10/2016 8:31:00a 217 3 3 18 82 77.9 50.5 30.24 2.36 0.5 232 0.00 0.00 0.00 0.000
12/10/2016 8:32:00a 216 4 4 18 82 77.9 50.6 30.24 2.36 0.5 234 0.00 0.00 0.00 0.000
12/10/2016 8:33:00a 217 2 4 18 81 77.9 50.6 30.24 2.36 0.5 237 0.00 0.00 0.00 0.000
12/10/2016 8:34:00a 217 2 4 18 81 77.9 50.6 30.24 2.36 0.5 241 0.00 0.00 0.00 0.000
12/10/2016 8:37:00a 222 4 4 18 81 77.9 50.8 30.24 2.36 0.6 250 0.00 0.00 0.00 0.000
12/10/2016 8:38:00a 222 3 4 18 81 77.9 50.8 30.24 2.36 0.6 248 0.00 0.00 0.00 0.000
12/10/2016 8:39:00a 222 2 4 18 81 77.9 50.8 30.24 2.36 0.6 248 0.00 0.00 0.00 0.000
12/10/2016 8:40:00a 222 2 4 18 81 77.9 50.9 30.24 2.36 0.6 248 0.00 0.00 0.00 0.000
12/10/2016 8:43:00a 222 2 4 18 80 77.9 51.1 30.24 2.36 0.6 248 0.00 0.00 0.00 0.000
12/10/2016 8:44:00a 222 3 4 18 80 77.9 51.1 30.24 2.36 0.6 250 0.00 0.00 0.00 0.000
12/10/2016 8:45:00a 222 3 4 18 80 77.9 51.1 30.24 2.36 0.6 253 0.00 0.00 0.00 0.000
12/10/2016 8:48:00a 222 1 4 18 79 77.9 51.3 30.25 2.36 0.6 264 0.00 0.00 0.00 0.000
12/10/2016 8:49:00a 222 1 4 18 79 77.9 51.4 30.25 2.36 0.7 267 0.00 0.00 0.00 0.000
12/10/2016 8:50:00a 222 1 4 18 79 77.9 51.4 30.25 2.36 0.7 271 0.00 0.00 0.00 0.000
12/10/2016 8:53:00a 222 1 4 18 79 77.9 51.6 30.25 2.36 0.7 278 0.00 0.00 0.00 0.000
12/10/2016 8:54:00a 222 0 4 18 79 77.9 51.7 30.25 2.36 0.7 279 0.00 0.00 0.00 0.000
12/10/2016 8:58:00a 222 0 4 18 79 77.9 51.9 30.25 2.36 0.7 295 0.00 0.00 0.00 0.000
12/10/2016 8:59:00a 222 0 4 18 79 77.9 51.9 30.25 2.36 0.7 297 0.00 0.00 0.00 0.000
12/10/2016 9:00:00a 222 0 4 18 78 77.9 52.0 30.25 2.36 0.7 297 0.00 0.00 0.00 0.000
12/10/2016 9:03:00a 222 0 4 18 79 77.9 52.2 30.25 2.36 0.8 306 0.00 0.00 0.00 0.000
12/10/2016 9:04:00a 222 0 4 18 78 77.9 52.3 30.25 2.36 0.8 309 0.00 0.00 0.00 0.000
12/10/2016 9:08:00a 222 0 4 18 78 77.9 52.7 30.25 2.36 0.8 320 0.00 0.00 0.00 0.000
12/10/2016 9:09:00a 222 0 4 18 78 77.9 52.8 30.25 2.36 0.8 330 0.00 0.00 0.00 0.000
12/10/2016 9:13:00a 222 0 4 18 77 77.9 53.2 30.25 2.36 0.9 332 0.00 0.00 0.00 0.000
12/10/2016 9:14:00a 222 0 4 18 77 77.9 53.3 30.25 2.36 0.9 336 0.00 0.00 0.00 0.000
12/10/2016 9:18:00a 222 0 4 18 76 77.9 53.6 30.25 2.36 0.9 327 0.00 0.00 0.00 0.000
12/10/2016 9:19:00a 222 0 4 18 76 77.9 53.6 30.25 2.36 0.9 334 0.00 0.00 0.00 0.000
12/10/2016 9:20:00a 222 0 4 18 76 77.9 53.7 30.25 2.36 0.9 338 0.00 0.00 0.00 0.000
12/10/2016 9:23:00a 222 0 4 18 75 77.9 54.0 30.25 2.36 1.0 350 0.00 0.00 0.00 0.000
12/10/2016 9:24:00a 222 0 4 18 75 77.9 54.1 30.25 2.36 1.0 352 0.00 0.00 0.00 0.000
12/10/2016 9:25:00a 222 0 4 18 75 77.9 54.1 30.25 2.36 1.0 355 0.00 0.00 0.00 0.000
12/10/2016 9:28:00a 222 0 4 18 75 77.9 54.3 30.25 2.36 1.0 371 0.00 0.00 0.00 0.000
12/10/2016 9:29:00a 222 2 4 18 74 77.9 54.4 30.25 2.36 1.0 373 0.00 0.00 0.00 0.000
12/10/2016 9:30:00a 222 2 4 18 74 77.9 54.5 30.25 2.36 1.0 373 0.00 0.00 0.00 0.000
12/10/2016 9:33:00a 225 0 4 18 74 77.9 54.8 30.24 2.36 1.1 353 0.00 0.00 0.00 0.000
12/10/2016 9:34:00a 225 0 4 18 73 77.9 54.8 30.24 2.36 1.1 364 0.00 0.00 0.00 0.000
12/10/2016 9:38:00a 230 1 4 18 73 77.9 55.2 30.24 2.36 1.1 396 0.00 0.00 0.00 0.000
12/10/2016 9:39:00a 230 1 4 18 73 77.9 55.2 30.24 2.36 1.1 388 0.00 0.00 0.00 0.000
12/10/2016 9:40:00a 230 1 4 18 73 77.9 55.3 30.24 2.36 1.1 388 0.00 0.00 0.00 0.000
12/10/2016 9:43:00a 230 3 4 18 71 77.9 55.6 30.24 2.36 1.2 406 0.00 0.00 0.00 0.000
12/10/2016 9:44:00a 230 0 4 18 71 77.9 55.7 30.24 2.36 1.2 415 0.00 0.00 0.00 0.000
12/10/2016 9:48:00a 230 2 4 18 70 77.9 56.0 30.24 2.36 1.2 411 0.00 0.00 0.00 0.000
12/10/2016 9:49:00a 230 1 4 18 70 77.9 56.1 30.24 2.36 1.3 420 0.00 0.00 0.00 0.000
12/10/2016 9:51:00a 230 2 4 18 70 77.9 56.1 30.24 2.36 1.3 420 0.00 0.00 0.00 0.000
12/10/2016 9:53:00a 230 1 4 18 69 78.1 56.3 30.24 2.36 1.2 390 0.00 0.00 0.00 0.000
12/10/2016 9:54:00a 230 0 4 18 69 78.1 56.4 30.24 2.36 1.2 399 0.00 0.00 0.00 0.000
12/10/2016 9:55:00a 230 0 4 18 69 78.1 56.4 30.24 2.36 1.2 394 0.00 0.00 0.00 0.000
12/10/2016 9:58:00a 243 3 4 18 68 78.1 56.7 30.24 2.36 1.2 346 0.00 0.00 0.00 0.000
12/10/2016 9:59:00a 243 2 4 18 68 78.1 56.7 30.24 2.36 1.3 371 0.00 0.00 0.00 0.000
12/10/2016 10:04:00a 243 0 4 18 67 78.1 57.1 30.24 2.36 1.4 431 0.00 0.00 0.00 0.000
12/10/2016 10:05:00a 244 0 4 18 67 78.1 57.1 30.24 2.36 1.4 431 0.00 0.00 0.00 0.000
12/10/2016 10:09:00a 284 2 4 18 66 78.2 57.4 30.24 2.36 1.4 436 0.00 0.00 0.00 0.000
12/10/2016 10:10:00a 284 1 4 18 66 78.2 57.4 30.24 2.36 1.4 436 0.00 0.00 0.00 0.000
12/10/2016 10:18:00a 282 0 4 18 65 78.2 57.9 30.23 2.36 1.5 459 0.00 0.00 0.00 0.000
12/10/2016 10:19:00a 282 0 4 18 65 78.2 58.0 30.23 2.36 1.5 454 0.00 0.00 0.00 0.000
12/10/2016 10:23:00a 283 1 4 18 65 78.2 58.3 30.23 2.36 1.5 443 0.00 0.00 0.00 0.000
12/10/2016 10:24:00a 283 0 4 18 65 78.2 58.4 30.23 2.36 1.5 448 0.00 0.00 0.00 0.000
12/10/2016 10:25:00a 289 3 4 18 65 78.2 58.4 30.23 2.36 1.5 448 0.00 0.00 0.00 0.000
12/10/2016 10:28:00a 332 3 4 18 64 78.2 58.6 30.23 2.36 1.5 450 0.00 0.00 0.00 0.000
12/10/2016 10:30:00a 331 2 4 18 64 78.2 58.7 30.23 2.36 1.5 457 0.00 0.00 0.00 0.000
12/10/2016 10:33:00a 331 0 4 18 64 78.2 58.8 30.23 2.36 1.6 462 0.00 0.00 0.00 0.000
12/10/2016 10:34:00a 331 1 4 18 64 78.2 58.8 30.22 2.36 1.6 471 0.00 0.00 0.00 0.000
12/10/2016 10:35:00a 331 1 4 18 64 78.2 58.9 30.22 2.36 1.6 471 0.00 0.00 0.00 0.000
12/10/2016 10:38:00a 330 0 4 18 64 78.2 59.1 30.23 2.36 1.6 471 0.00 0.00 0.00 0.000
12/10/2016 10:39:00a 337 3 5 19 64 78.4 59.2 30.22 2.36 1.6 473 0.00 0.00 0.00 0.000
12/10/2016 10:40:00a 337 3 5 19 63 78.4 59.1 30.22 2.36 1.6 473 0.00 0.00 0.00 0.000
12/10/2016 10:43:00a 3 1 5 19 63 78.4 59.2 30.22 2.36 1.6 454 0.00 0.00 0.00 0.000
12/10/2016 10:44:00a 3 0 5 19 63 78.4 59.3 30.22 2.36 1.6 454 0.00 0.00 0.00 0.000
12/10/2016 10:45:00a 2 0 5 19 63 78.4 59.3 30.22 2.36 1.6 454 0.00 0.00 0.00 0.000
12/10/2016 10:48:00a 335 3 5 19 63 78.4 59.3 30.22 2.36 1.6 469 0.00 0.00 0.00 0.000
12/10/2016 10:49:00a 318 4 5 19 63 78.4 59.3 30.22 2.36 1.6 482 0.00 0.00 0.00 0.000
12/10/2016 10:50:00a 317 4 5 19 63 78.4 59.3 30.22 2.36 1.6 482 0.00 0.00 0.00 0.000
12/10/2016 10:53:00a 317 0 5 19 62 78.4 59.4 30.22 2.36 1.7 483 0.00 0.00 0.00 0.000
12/10/2016 10:54:00a 320 1 5 19 62 78.4 59.5 30.22 2.36 1.7 487 0.00 0.00 0.00 0.000
12/10/2016 10:55:00a 320 0 5 19 62 78.4 59.5 30.22 2.36 1.7 487 0.00 0.00 0.00 0.000
12/10/2016 10:58:00a 321 0 5 19 62 78.6 59.8 30.22 2.36 1.7 492 0.00 0.00 0.00 0.000
12/10/2016 10:59:00a 320 1 5 19 62 78.6 59.8 30.22 2.36 1.7 487 0.00 0.00 0.00 0.000
12/10/2016 11:00:00a 321 1 5 19 62 78.6 59.8 30.22 2.36 1.7 487 0.00 0.00 0.00 0.000
12/10/2016 11:03:00a 320 1 5 19 61 78.6 60.1 30.21 2.36 1.7 497 0.00 0.00 0.00 0.000
12/10/2016 11:04:00a 321 2 5 19 62 78.6 60.2 30.21 2.36 1.7 497 0.00 0.00 0.00 0.000
12/10/2016 11:05:00a 320 2 5 19 62 78.6 60.2 30.21 2.36 1.7 497 0.00 0.00 0.00 0.000
12/10/2016 11:07:00a 341 2 5 19 61 78.6 60.3 30.21 2.36 1.7 476 0.00 0.00 0.00 0.000
12/10/2016 11:08:00a 339 2 5 19 61 78.6 60.4 30.21 2.36 1.8 490 0.00 0.00 0.00 0.000
12/10/2016 11:09:00a 340 0 5 19 60 78.6 60.5 30.20 2.36 1.8 503 0.00 0.00 0.00 0.000
12/10/2016 11:13:00a 340 2 5 19 60 78.8 60.7 30.20 2.36 1.8 499 0.00 0.00 0.00 0.000
12/10/2016 11:14:00a 340 3 5 19 60 78.8 60.7 30.20 2.36 1.8 499 0.00 0.00 0.00 0.000
12/10/2016 11:15:00a 339 1 5 19 59 78.8 60.8 30.20 2.36 1.8 512 0.00 0.00 0.00 0.000
12/10/2016 11:16:00a 322 2 4 19 59 78.8 60.8 30.20 2.36 1.8 524 0.00 0.00 0.00 0.000
12/10/2016 11:18:00a 319 2 4 19 59 78.8 61.0 30.20 2.36 1.8 519 0.00 0.00 0.00 0.000
12/10/2016 11:20:00a 319 3 4 19 59 78.8 61.1 30.20 2.36 1.8 517 0.00 0.00 0.00 0.000
12/10/2016 11:24:00a 319 0 4 19 58 78.8 61.3 30.20 2.36 1.8 512 0.00 0.00 0.00 0.000
12/10/2016 11:28:00a 318 1 4 19 58 78.8 61.5 30.20 2.36 1.8 508 0.00 0.00 0.00 0.000
12/10/2016 11:30:00a 318 0 4 19 58 78.8 61.6 30.19 2.36 1.8 510 0.00 0.00 0.00 0.000
12/10/2016 11:34:00a 318 1 4 19 57 78.9 61.8 30.19 2.36 1.9 540 0.00 0.00 0.00 0.000
12/10/2016 11:35:00a 318 1 4 19 57 78.9 61.9 30.19 2.36 1.9 541 0.00 0.00 0.00 0.000
12/10/2016 11:38:00a 318 0 4 19 56 78.9 62.1 30.20 2.36 1.9 557 0.00 0.00 0.00 0.000
12/10/2016 11:40:00a 318 0 4 19 56 78.9 62.1 30.19 2.36 1.9 557 0.00 0.00 0.00 0.000
12/10/2016 11:43:00a 318 2 4 19 56 78.9 62.3 30.20 2.36 1.9 533 0.00 0.00 0.00 0.000
12/10/2016 11:44:00a 318 0 5 19 55 78.9 62.5 30.20 2.36 1.9 533 0.00 0.00 0.00 0.000
12/10/2016 11:45:00a 318 0 5 19 55 78.9 62.4 30.20 2.36 1.9 533 0.00 0.00 0.00 0.000
12/10/2016 11:48:00a 318 0 5 19 55 79.1 62.7 30.19 2.36 1.8 531 0.00 0.00 0.00 0.000
12/10/2016 11:50:00a 318 0 5 19 55 79.1 62.7 30.19 2.36 1.8 524 0.00 0.00 0.00 0.000
12/10/2016 11:55:00a 324 0 5 19 54 79.1 63.0 30.19 2.36 1.8 522 0.00 0.00 0.00 0.000
12/10/2016 11:58:00a 331 3 5 19 54 79.1 63.2 30.19 2.36 1.8 517 0.00 0.00 0.00 0.000
12/10/2016 11:59:00a 331 4 5 19 54 79.1 63.3 30.19 2.36 1.8 522 0.00 0.00 0.00 0.000
12/10/2016 12:04:00p 299 5 5 20 54 79.3 63.4 30.19 2.36 1.8 520 0.00 0.00 0.00 0.000
12/10/2016 12:05:00p 299 4 5 20 54 79.3 63.5 30.19 2.36 1.8 520 0.00 0.00 0.00 0.000
12/10/2016 12:08:00p 299 0 5 20 53 79.3 63.5 30.18 2.36 1.7 501 0.00 0.00 0.00 0.000
12/10/2016 12:09:00p 299 0 5 20 53 79.5 63.6 30.18 2.36 1.8 510 0.00 0.00 0.00 0.000
12/10/2016 12:10:00p 299 0 5 20 53 79.5 63.6 30.18 2.36 1.8 492 0.00 0.00 0.00 0.000
12/10/2016 12:13:00p 297 0 5 20 53 79.5 63.6 30.18 2.36 1.7 504 0.00 0.00 0.00 0.000
12/10/2016 12:14:00p 297 4 5 20 53 79.5 63.6 30.18 2.36 1.7 510 0.00 0.00 0.00 0.000
12/10/2016 12:18:00p 298 1 5 20 53 79.5 63.7 30.18 2.36 1.7 503 0.00 0.00 0.00 0.000
12/10/2016 12:20:00p 297 3 5 20 53 79.5 63.8 30.18 2.36 1.7 499 0.00 0.00 0.00 0.000
12/10/2016 12:23:00p 293 5 5 20 53 79.7 63.9 30.17 2.36 1.7 475 0.00 0.00 0.00 0.000
12/10/2016 12:24:00p 292 3 5 20 53 79.7 63.9 30.17 2.36 1.7 494 0.00 0.00 0.00 0.000
12/10/2016 12:25:00p 292 2 5 20 53 79.7 63.9 30.17 2.36 1.7 494 0.00 0.00 0.00 0.000
12/10/2016 12:28:00p 292 0 5 20 53 79.7 64.0 30.18 2.36 1.7 512 0.00 0.00 0.00 0.000
12/10/2016 12:29:00p 292 0 5 20 53 79.7 64.1 30.17 2.36 1.7 526 0.00 0.00 0.00 0.000
12/10/2016 12:33:00p 292 0 5 20 53 79.9 64.3 30.18 2.36 1.6 480 0.00 0.00 0.00 0.000
12/10/2016 12:35:00p 292 0 5 20 53 79.9 64.3 30.18 2.36 1.6 462 0.00 0.00 0.00 0.000
12/10/2016 12:38:00p 292 0 5 20 53 79.9 64.7 30.17 2.36 1.5 441 0.00 0.00 0.00 0.000
12/10/2016 12:39:00p 296 2 5 20 53 79.9 64.8 30.17 2.36 1.4 415 0.00 0.00 0.00 0.000
12/10/2016 12:40:00p 296 3 5 20 53 79.9 64.8 30.17 2.36 1.5 415 0.00 0.00 0.00 0.000
12/10/2016 12:43:00p 303 0 5 20 51 80.1 64.9 30.17 2.36 1.6 482 0.00 0.00 0.00 0.000
12/10/2016 12:44:00p 303 2 5 20 51 80.1 65.0 30.17 2.36 1.6 485 0.00 0.00 0.00 0.000
12/10/2016 12:45:00p 304 2 5 20 51 80.1 65.0 30.17 2.36 1.6 499 0.00 0.00 0.00 0.000
12/10/2016 12:48:00p 302 1 5 20 51 80.1 65.0 30.16 2.36 1.6 490 0.00 0.00 0.00 0.000
12/10/2016 12:49:00p 302 4 5 20 51 80.1 65.0 30.16 2.36 1.6 492 0.00 0.00 0.00 0.000
12/10/2016 12:50:00p 302 3 5 20 51 80.1 65.0 30.16 2.36 1.6 492 0.00 0.00 0.00 0.000
12/10/2016 12:53:00p 303 2 5 20 51 80.2 65.1 30.16 2.36 1.5 497 0.00 0.00 0.00 0.000
12/10/2016 12:54:00p 302 4 5 20 51 80.2 65.1 30.15 2.36 1.5 487 0.00 0.00 0.00 0.000
12/10/2016 12:58:00p 303 0 5 20 51 80.2 65.1 30.15 2.36 1.5 504 0.00 0.00 0.00 0.000
12/10/2016 12:59:00p 303 0 5 20 51 80.2 65.2 30.15 2.36 1.5 462 0.00 0.00 0.00 0.000
12/10/2016 1:03:00p 302 3 5 20 51 80.4 65.4 30.15 2.36 1.4 445 0.00 0.00 0.00 0.000
12/10/2016 1:04:00p 302 2 5 20 51 80.4 65.4 30.15 2.36 1.4 473 0.00 0.00 0.00 0.000
12/10/2016 1:05:00p 302 1 5 20 51 80.4 65.4 30.15 2.36 1.4 473 0.00 0.00 0.00 0.000
12/10/2016 1:08:00p 320 0 5 20 50 80.4 65.5 30.15 2.36 1.4 490 0.00 0.00 0.00 0.000
12/10/2016 1:09:00p 320 1 5 20 50 80.6 65.5 30.15 2.36 1.3 475 0.00 0.00 0.00 0.000
12/10/2016 1:11:00p 320 1 5 20 50 80.6 65.5 30.15 2.36 1.4 475 0.00 0.00 0.00 0.000
12/10/2016 1:13:00p 331 0 5 21 50 80.6 65.5 30.15 2.36 1.3 417 0.00 0.00 0.00 0.000
12/10/2016 1:14:00p 306 5 5 21 51 80.6 65.5 30.15 2.36 1.3 473 0.00 0.00 0.00 0.000
12/10/2016 1:15:00p 306 3 5 21 51 80.6 65.5 30.15 2.36 1.4 473 0.00 0.00 0.00 0.000
12/10/2016 1:18:00p 296 4 5 21 50 80.6 65.6 30.15 2.36 1.3 466 0.00 0.00 0.00 0.000
12/10/2016 1:19:00p 296 5 5 21 50 80.6 65.6 30.15 2.36 1.3 454 0.00 0.00 0.00 0.000
12/10/2016 1:20:00p 295 3 5 21 50 80.8 65.6 30.15 2.36 1.3 445 0.00 0.00 0.00 0.000
12/10/2016 1:23:00p 295 4 5 21 50 80.8 65.5 30.15 2.36 1.3 445 0.00 0.00 0.00 0.000
12/10/2016 1:24:00p 294 3 5 21 50 80.8 65.5 30.15 2.36 1.3 446 0.00 0.00 0.00 0.000
12/10/2016 1:25:00p 294 1 5 21 50 80.8 65.5 30.15 2.36 1.3 446 0.00 0.00 0.00 0.000
12/10/2016 1:28:00p 317 4 5 21 51 81.0 65.6 30.14 2.36 1.2 457 0.00 0.00 0.00 0.000
12/10/2016 1:29:00p 318 1 5 21 51 81.0 65.6 30.14 2.36 1.2 434 0.00 0.00 0.00 0.000
12/10/2016 1:30:00p 319 2 5 21 51 81.0 65.6 30.14 2.36 1.2 434 0.00 0.00 0.00 0.000
12/10/2016 1:33:00p 334 2 5 21 51 81.0 65.6 30.14 2.36 1.2 415 0.00 0.00 0.00 0.000
12/10/2016 1:34:00p 334 0 5 21 51 81.0 65.6 30.14 2.36 1.2 415 0.00 0.00 0.00 0.000
12/10/2016 1:35:00p 334 1 5 21 51 81.0 65.6 30.14 2.36 1.2 415 0.00 0.00 0.00 0.000
12/10/2016 1:38:00p 288 4 5 21 51 81.2 65.6 30.14 2.36 1.1 362 0.00 0.00 0.00 0.000
12/10/2016 1:39:00p 293 5 6 21 51 81.2 65.7 30.14 2.36 1.1 399 0.00 0.00 0.00 0.000
12/10/2016 1:40:00p 293 4 6 21 51 81.2 65.7 30.14 2.36 1.1 399 0.00 0.00 0.00 0.000
12/10/2016 1:43:00p 291 2 6 21 51 81.2 65.7 30.14 2.36 1.1 431 0.00 0.00 0.00 0.000
12/10/2016 1:44:00p 291 1 6 21 51 81.2 65.7 30.14 2.36 1.1 424 0.00 0.00 0.00 0.000
12/10/2016 1:45:00p 291 0 6 21 51 81.2 65.7 30.14 2.36 1.1 424 0.00 0.00 0.00 0.000
12/10/2016 1:48:00p 342 2 6 21 52 81.4 65.7 30.14 2.36 1.0 396 0.00 0.00 0.00 0.000
12/10/2016 1:49:00p 340 4 6 21 52 81.4 65.7 30.14 2.36 1.0 378 0.00 0.00 0.00 0.000
12/10/2016 1:50:00p 340 3 6 21 52 81.4 65.7 30.14 2.36 1.0 378 0.00 0.00 0.00 0.000
12/10/2016 1:54:00p 320 1 6 21 52 81.5 65.7 30.15 2.36 1.0 418 0.00 0.00 0.00 0.000
12/10/2016 1:55:00p 320 0 6 21 52 81.5 65.7 30.15 2.36 1.0 387 0.00 0.00 0.00 0.000
12/10/2016 1:58:00p 329 5 6 21 52 81.5 65.7 30.14 2.36 0.9 301 0.00 0.00 0.00 0.000
12/10/2016 1:59:00p 335 4 6 21 53 81.5 65.8 30.14 2.36 0.9 352 0.00 0.00 0.00 0.000
12/10/2016 2:00:00p 335 2 6 21 53 81.5 65.8 30.14 2.36 0.9 352 0.00 0.00 0.00 0.000
12/10/2016 2:04:00p 344 6 6 21 53 81.7 65.8 30.14 2.36 0.9 369 0.00 0.00 0.00 0.000
12/10/2016 2:05:00p 342 5 6 21 53 81.7 65.8 30.14 2.36 0.9 369 0.00 0.00 0.00 0.000
12/10/2016 2:09:00p 349 0 6 21 53 81.7 65.6 30.14 2.36 0.8 350 0.00 0.00 0.00 0.000
12/10/2016 2:11:00p 349 0 6 21 54 81.7 65.7 30.14 2.36 0.8 350 0.00 0.00 0.00 0.000
12/10/2016 2:15:00p 285 4 6 21 54 81.9 65.7 30.14 2.36 0.7 264 0.00 0.00 0.00 0.000
12/10/2016 2:18:00p 283 3 6 21 54 81.9 65.7 30.14 2.36 0.7 265 0.00 0.00 0.00 0.000
12/10/2016 2:19:00p 283 0 6 21 54 81.9 65.7 30.14 2.36 0.7 390 0.00 0.00 0.00 0.000
12/10/2016 2:20:00p 283 0 6 21 54 81.9 65.7 30.14 2.36 0.8 390 0.00 0.00 0.00 0.000
12/10/2016 2:23:00p 283 3 6 21 54 82.1 65.7 30.14 2.36 0.7 367 0.00 0.00 0.00 0.000
12/10/2016 2:24:00p 283 4 6 22 54 82.1 65.7 30.14 2.36 0.7 362 0.00 0.00 0.00 0.000
12/10/2016 2:25:00p 283 2 6 22 54 82.1 65.7 30.14 2.36 0.7 362 0.00 0.00 0.00 0.000
12/10/2016 2:28:00p 289 0 6 22 54 82.1 65.7 30.14 2.36 0.7 350 0.00 0.00 0.00 0.000
12/10/2016 2:32:00p 289 2 6 22 54 82.1 65.7 30.14 2.36 0.7 330 0.00 0.00 0.00 0.000
12/10/2016 2:33:00p 306 3 6 22 54 82.3 65.7 30.14 2.36 0.6 304 0.00 0.00 0.00 0.000
12/10/2016 2:34:00p 306 3 6 22 54 82.3 65.7 30.14 2.36 0.6 260 0.00 0.00 0.00 0.000
12/10/2016 2:35:00p 305 2 6 22 54 82.3 65.7 30.14 2.36 0.6 260 0.00 0.00 0.00 0.000
12/10/2016 2:38:00p 324 0 6 22 54 82.3 65.7 30.14 2.36 0.6 301 0.00 0.00 0.00 0.000
12/10/2016 2:39:00p 323 1 6 22 54 82.3 65.7 30.14 2.36 0.6 292 0.00 0.00 0.00 0.000
12/10/2016 2:40:00p 323 2 6 22 54 82.3 65.7 30.14 2.36 0.6 292 0.00 0.00 0.00 0.000
12/10/2016 2:43:00p 312 5 6 22 54 82.5 65.7 30.14 2.36 0.5 288 0.00 0.00 0.00 0.000
12/10/2016 2:44:00p 310 1 6 22 54 82.5 65.7 30.14 2.36 0.5 295 0.00 0.00 0.00 0.000
12/10/2016 2:48:00p 310 2 6 22 54 82.5 65.6 30.14 2.36 0.5 283 0.00 0.00 0.00 0.000
12/10/2016 2:49:00p 310 0 6 22 54 82.5 65.6 30.13 2.36 0.5 278 0.00 0.00 0.00 0.000
12/10/2016 2:53:00p 330 4 6 22 54 82.7 65.6 30.13 2.36 0.5 269 0.00 0.00 0.00 0.000
12/10/2016 2:54:00p 335 3 6 22 54 82.7 65.6 30.14 2.36 0.5 260 0.00 0.00 0.00 0.000
12/10/2016 2:55:00p 333 4 6 22 54 82.7 65.6 30.14 2.36 0.5 260 0.00 0.00 0.00 0.000
12/10/2016 2:58:00p 332 0 6 22 54 82.7 65.6 30.14 2.36 0.0 220 0.00 0.00 0.00 0.000
12/10/2016 2:59:00p 331 1 6 22 54 82.7 65.6 30.14 2.36 0.0 234 0.00 0.00 0.00 0.000
12/10/2016 3:00:00p 332 0 6 22 54 82.7 65.6 30.14 2.36 0.0 234 0.00 0.00 0.00 0.000
12/10/2016 3:03:00p 331 2 6 22 54 82.9 65.6 30.13 2.36 0.0 223 0.00 0.00 0.00 0.000
12/10/2016 3:04:00p 331 2 6 22 54 82.9 65.6 30.13 2.36 0.0 232 0.00 0.00 0.00 0.000
12/10/2016 3:05:00p 332 2 6 22 54 82.9 65.6 30.13 2.36 0.0 232 0.00 0.00 0.00 0.000
12/10/2016 3:08:00p 291 4 6 22 54 82.9 65.6 30.13 2.36 0.0 230 0.00 0.00 0.00 0.000
12/10/2016 3:09:00p 291 2 6 22 54 83.0 65.6 30.13 2.36 0.0 229 0.00 0.00 0.00 0.000
12/10/2016 3:10:00p 287 5 6 22 54 83.0 65.6 30.13 2.36 0.0 229 0.00 0.00 0.00 0.000
12/10/2016 3:13:00p 286 2 6 22 54 83.0 65.5 30.13 2.36 0.0 211 0.00 0.00 0.00 0.000
12/10/2016 3:14:00p 291 2 6 22 54 83.0 65.5 30.13 2.36 0.0 200 0.00 0.00 0.00 0.000
12/10/2016 3:15:00p 291 2 6 22 55 83.0 65.5 30.13 2.36 0.0 200 0.00 0.00 0.00 0.000
12/10/2016 3:18:00p 326 5 6 22 55 83.2 65.3 30.13 2.36 0.0 199 0.00 0.00 0.00 0.000
12/10/2016 3:19:00p 326 4 6 22 55 83.2 65.3 30.13 2.36 0.0 192 0.00 0.00 0.00 0.000
12/10/2016 3:20:00p 326 3 6 22 55 83.2 65.3 30.13 2.36 0.0 192 0.00 0.00 0.00 0.000
12/10/2016 3:23:00p 326 0 6 22 55 83.2 65.1 30.14 2.36 0.0 178 0.00 0.00 0.00 0.000
12/10/2016 3:24:00p 330 2 6 22 55 83.2 65.1 30.13 2.36 0.0 183 0.00 0.00 0.00 0.000
12/10/2016 3:25:00p 331 2 6 22 55 83.2 65.1 30.13 2.36 0.0 183 0.00 0.00 0.00 0.000
12/10/2016 3:28:00p 331 0 6 22 55 83.4 65.0 30.13 2.36 0.0 193 0.00 0.00 0.00 0.000
12/10/2016 3:29:00p 331 0 6 22 55 83.4 64.9 30.13 2.36 0.0 183 0.00 0.00 0.00 0.000
12/10/2016 3:33:00p 331 0 6 22 55 83.4 64.9 30.13 2.36 0.0 181 0.00 0.00 0.00 0.000
12/10/2016 3:34:00p 331 3 6 22 55 83.4 64.9 30.13 2.36 0.0 171 0.00 0.00 0.00 0.000
12/10/2016 3:38:00p 331 1 6 22 56 83.6 64.8 30.13 2.36 0.0 155 0.00 0.00 0.00 0.000
12/10/2016 3:39:00p 331 0 6 22 56 83.6 64.8 30.13 2.36 0.0 155 0.00 0.00 0.00 0.000
12/10/2016 3:40:00p 331 0 6 22 56 83.6 64.8 30.13 2.36 0.0 151 0.00 0.00 0.00 0.000
12/10/2016 3:43:00p 330 2 6 22 56 83.6 64.8 30.13 2.36 0.0 130 0.00 0.00 0.00 0.000
12/10/2016 3:45:00p 330 0 6 22 56 83.6 64.8 30.13 2.36 0.0 127 0.00 0.00 0.00 0.000
12/10/2016 3:48:00p 330 0 6 22 56 83.8 64.7 30.13 2.36 0.0 114 0.00 0.00 0.00 0.000
12/10/2016 3:53:00p 330 0 6 22 56 83.8 64.7 30.13 2.36 0.0 100 0.00 0.00 0.00 0.000
12/10/2016 3:54:00p 330 0 6 22 56 83.8 64.7 30.13 2.36 0.0 95 0.00 0.00 0.00 0.000
12/10/2016 4:01:00p 330 0 0 22 56 84.0 64.6 30.13 2.36 0.0 76 0.00 0.00 0.00 0.000
12/10/2016 4:02:00p 330 0 0 22 56 84.0 64.6 30.13 2.36 0.0 72 0.00 0.00 0.00 0.000
12/10/2016 4:03:00p 330 0 0 22 56 84.0 64.6 30.13 2.36 0.0 70 0.00 0.00 0.00 0.000
12/10/2016 4:04:00p 330 0 0 22 56 84.0 64.6 30.13 2.36 0.0 60 0.00 0.00 0.00 0.000
12/10/2016 4:10:00p 330 0 0 22 56 84.2 64.5 30.12 2.36 0.0 28 0.00 0.00 0.00 0.000
12/10/2016 4:13:00p 330 0 0 22 56 84.2 64.5 30.12 2.36 0.0 23 0.00 0.00 0.00 0.000
12/10/2016 4:18:00p 330 0 0 22 56 84.2 64.4 30.13 2.36 0.0 19 0.00 0.00 0.00 0.000
12/10/2016 4:19:00p 330 0 0 22 56 84.2 64.4 30.12 2.36 0.0 21 0.00 0.00 0.00 0.000
12/10/2016 4:23:00p 330 0 0 22 56 84.4 64.2 30.13 2.36 0.0 21 0.00 0.00 0.00 0.000
12/10/2016 4:28:00p 330 0 0 22 56 84.4 64.0 30.13 2.36 0.0 11 0.00 0.00 0.00 0.000
12/10/2016 4:29:00p 330 0 0 22 56 84.4 63.9 30.13 2.36 0.0 11 0.00 0.00 0.00 0.000
12/10/2016 4:33:00p 330 0 0 22 56 84.6 63.7 30.13 2.36 0.0 7 0.00 0.00 0.00 0.000
12/10/2016 4:34:00p 330 0 0 22 56 84.6 63.7 30.13 2.36 0.0 5 0.00 0.00 0.00 0.000
12/10/2016 4:38:00p 330 0 0 22 57 84.6 63.5 30.13 2.36 0.0 0 0.00 0.00 0.00 0.000
12/10/2016 4:39:00p 330 0 0 22 57 84.6 63.4 30.13 2.36 0.0 0 0.00 0.00 0.00 0.000
12/10/2016 4:43:00p 345 2 2 22 56 84.8 63.1 30.13 2.36 0.0 0 0.00 0.00 0.00 0.000
12/10/2016 4:45:00p 350 3 3 22 56 84.8 62.9 30.13 2.36 0.0 0 0.00 0.00 0.00 0.000
12/10/2016 4:48:00p 11 1 3 22 57 84.8 62.4 30.13 2.36 0.0 0 0.00 0.00 0.00 0.000
12/10/2016 4:49:00p 10 1 3 22 57 84.8 62.2 30.13 2.36 0.0 0 0.00 0.00 0.00 0.000
12/10/2016 4:50:00p 11 0 3 22 57 84.8 62.2 30.13 2.36 0.0 0 0.00 0.00 0.00 0.000
12/10/2016 4:53:00p 10 3 3 22 57 84.8 61.8 30.14 2.36 0.0 0 0.00 0.00 0.00 0.000
12/10/2016 4:54:00p 11 3 3 22 58 84.8 61.7 30.14 2.36 0.0 0 0.00 0.00 0.00 0.000
12/10/2016 4:55:00p 10 3 4 22 58 84.8 61.7 30.14 2.36 0.0 0 0.00 0.00 0.00 0.000
12/10/2016 4:58:00p 82 4 4 22 58 84.8 61.1 30.14 2.36 0.0 0 0.00 0.00 0.00 0.000
12/10/2016 5:01:00p 83 3 4 22 58 85.0 60.8 30.14 2.36 0.0 0 0.00 0.00 0.00 0.000
12/10/2016 5:03:00p 83 0 4 22 59 85.0 60.4 30.14 2.36 0.0 0 0.00 0.00 0.00 0.000
12/10/2016 5:04:00p 83 0 4 22 59 85.0 60.2 30.14 2.36 0.0 0 0.00 0.00 0.00 0.000
12/10/2016 5:08:00p 83 0 4 22 60 85.0 59.9 30.14 2.36 0.0 0 0.00 0.00 0.00 0.000
12/10/2016 5:09:00p 83 0 4 22 60 85.0 59.8 30.14 2.36 0.0 0 0.00 0.00 0.00 0.000
12/10/2016 5:13:00p 83 0 4 22 61 85.0 59.3 30.14 2.36 0.0 0 0.00 0.00 0.00 0.000
12/10/2016 5:18:00p 83 0 4 22 62 85.2 59.3 30.14 2.36 0.0 0 0.00 0.00 0.00 0.000
12/10/2016 5:21:00p 83 0 4 22 62 85.2 59.2 30.14 2.36 0.0 0 0.00 0.00 0.00 0.000
12/10/2016 5:23:00p 83 0 4 22 62 85.2 58.9 30.14 2.36 0.0 0 0.00 0.00 0.00 0.000
12/10/2016 5:24:00p 83 0 4 22 63 85.2 58.9 30.13 2.36 0.0 0 0.00 0.00 0.00 0.000
12/10/2016 5:28:00p 83 0 4 21 63 85.2 58.8 30.13 2.36 0.0 0 0.00 0.00 0.00 0.000
12/10/2016 5:33:00p 83 0 4 21 64 85.4 58.7 30.13 2.36 0.0 0 0.00 0.00 0.00 0.000
12/10/2016 5:34:00p 83 2 4 21 64 85.4 58.7 30.13 2.36 0.0 0 0.00 0.00 0.00 0.000
12/10/2016 5:36:00p 83 1 4 21 64 85.4 58.7 30.13 2.36 0.0 0 0.00 0.00 0.00 0.000
12/10/2016 5:38:00p 83 0 4 21 64 85.4 58.6 30.13 2.36 0.0 0 0.00 0.00 0.00 0.000
12/10/2016 5:43:00p 83 2 4 21 64 85.4 58.3 30.14 2.36 0.0 0 0.00 0.00 0.00 0.000
12/10/2016 5:44:00p 83 3 4 21 64 85.4 58.2 30.14 2.36 0.0 0 0.00 0.00 0.00 0.000
12/10/2016 5:49:00p 83 2 4 21 65 85.6 57.9 30.14 2.36 0.0 0 0.00 0.00 0.00 0.000
12/10/2016 5:55:00p 83 0 4 21 65 85.6 57.6 30.14 2.36 0.0 0 0.00 0.00 0.00 0.000
12/10/2016 5:59:00p 83 1 4 21 66 85.6 57.4 30.14 2.36 0.0 0 0.00 0.00 0.00 0.000
12/10/2016 6:00:00p 83 2 4 21 66 85.6 57.4 30.14 2.36 0.0 0 0.00 0.00 0.00 0.000
12/10/2016 6:03:43p 83 0 4 21 66 85.6 57.2 30.14 2.36 0.0 0 0.00 0.00 0.00 0.000
12/10/2016 6:04:46p 83 0 4 21 66 85.6 57.1 30.14 2.36 0.0 0 0.00 0.00 0.00 0.000
12/10/2016 6:06:50p 83 0 4 21 66 85.6 57.1 30.14 2.36 0.0 0 0.00 0.00 0.00 0.000

© All rights reserved. Unauthorized duplication or distribution is prohibited

Never base important decisions on this or any weather information obtained from the Internet

California State University, San Bernardino
5500 University Parkway, San Bernardino, CA. 92407
Phone: (909) 537-7558, Email: Weather Master
Last Updated: